Location: Newark
(35.5580°S, 70.4960°W)
Time: 07:08:12
(UTC+00:00)

Envisat - Visible Passes

Search period start: 07 December 2019 00:00
Search period end: 17 December 2019 00:00
Orbit: 764 x 766 km, 98.1° (Epoch: 07 December)

Date Brightness Start Highest point End Pass type
(mag) Time Alt. Az. Time Alt. Az. Time Alt. Az.
07 Dec 6.0 00:44:53 10° SSW 00:48:16 18° WSW 00:51:37 10° WNW visible
10 Dec 5.8 00:33:10 10° SSW 00:37:06 23° WSW 00:41:00 10° WNW visible
12 Dec 6.3 01:00:06 10° SW 01:02:16 13° WSW 01:04:27 10° W visible
13 Dec 5.4 00:21:34 10° SSW 00:25:56 28° WSW 00:30:14 10° NW visible
15 Dec 6.0 00:48:03 10° SSW 00:51:09 16° WSW 00:54:14 10° WNW visible
